FW0655 Weather Reports


Display with metric or nautical units.
time (UTC)temp
F
wind
direction
speed
MPH
gust
MPH
rain 1hr
in
rain 24hr
in
rain mn
in
humidity
%
barometer
mb
20260904111521 66 269 0.0 2.0 0.00 0.92 0.03 94 1012.5
20260904110018 67 155 0.0 3.0 0.00 0.92 0.03 94 1012.3
20260904104516 67 172 1.0 3.0 0.00 0.92 0.03 94 1012.1
20260904103016 68 169 0.0 2.0 0.00 0.92 0.03 94 1012.2
20260904101514 68 169 0.0 2.0 0.00 0.92 0.03 94 1011.9
20260904100013 68 169 0.0 2.0 0.00 0.92 0.03 94 1011.9
20260904094516 68 169 0.0 2.0 0.00 0.92 0.03 94 1011.7
20260904093011 68 169 1.0 3.0 0.00 0.92 0.03 94 1011.8
20260904091525 69 169 0.0 1.0 0.00 0.92 0.03 94 1011.8
20260904090012 69 169 1.0 2.0 0.00 0.92 0.03 94 1011.6
20260904084506 69 198 2.0 4.0 0.00 0.92 0.03 94 1011.5
20260904083011 69 198 1.0 2.0 0.00 0.92 0.03 94 1011.4
20260904081506 69 198 1.0 3.0 0.00 0.92 0.03 94 1011.1
20260904080009 69 198 0.0 2.0 0.00 0.92 0.03 94 1011.0
20260904074506 69 198 0.0 2.0 0.00 0.92 0.03 94 1010.7
20260904073001 69 198 1.0 2.0 0.00 0.92 0.03 94 1010.5
20260904071626 69 198 0.0 4.0 0.00 0.92 0.03 94 1010.7
20260904070112 69 198 1.0 2.0 0.00 0.92 0.03 94 1010.8
20260904064607 70 198 0.0 1.0 0.00 0.93 0.03 94 1010.7
20260904063059 70 198 0.0 2.0 0.00 0.93 0.03 94 1010.5
20260904061554 70 198 0.0 2.0 0.00 0.93 0.03 94 1010.5
20260904060053 71 198 0.0 1.0 0.00 0.93 0.03 94 1010.7
20260904054552 71 198 0.0 2.0 0.00 0.93 0.03 93 1010.9
20260904053101 71 198 0.0 1.0 0.00 0.93 0.03 93 1010.9
20260904051550 71 198 0.0 1.0 0.01 0.93 0.03 93 1011.0
20260904050052 71 198 0.0 3.0 0.02 0.93 0.03 93 1011.1
20260904044556 71 198 0.0 1.0 0.57 1.04 0.03 93 1011.2
20260904043049 71 198 0.0 2.0 0.69 1.03 0.02 93 1011.2
20260904041547 71 198 2.0 6.0 0.71 1.03 0.02 93 1011.2
20260904040044 71 34 3.0 8.0 0.90 1.02 0.01 92 1011.0
20260904034544 72 13 1.0 3.0 0.32 0.57 0.44 93 1011.8
20260904033053 72 13 0.0 4.0 0.22 0.48 0.34 92 1011.0
20260904031557 72 121 1.0 3.0 0.19 0.45 0.31 92 1011.0
20260904030040 72 116 0.0 0.0 0.00 0.26 0.12 91 1011.0
20260904024540 72 116 1.0 3.0 0.00 0.56 0.12 91 1011.0
20260904023038 72 174 0.0 1.0 0.00 0.56 0.12 91 1010.8
20260904021547 72 174 0.0 1.0 0.00 0.56 0.12 91 1011.1
20260904020042 73 174 0.0 1.0 0.00 0.56 0.12 90 1011.4
20260904014537 72 174 0.0 2.0 0.00 0.66 0.12 90 1011.3
20260904013040 73 174 0.0 1.0 0.00 0.66 0.12 89 1011.4
20260904011538 73 174 1.0 3.0 0.00 0.66 0.12 89 1011.3
20260904010036 74 167 1.0 2.0 0.00 0.66 0.12 88 1011.5
20260904004535 74 167 0.0 2.0 0.00 0.66 0.12 88 1011.5
20260904003035 74 165 2.0 5.0 0.00 0.66 0.12 87 1011.2
20260904001537 75 61 1.0 3.0 0.00 0.66 0.12 86 1011.0
20260904000033 76 61 0.0 2.0 0.00 0.66 0.12 86 1011.1
20260903234534 77 61 1.0 2.0 0.00 0.66 0.12 85 1011.0
20260903233035 77 61 0.0 1.0 0.00 0.66 0.12 84 1011.1
20260903231532 78 61 1.0 3.0 0.00 0.66 0.12 82 1011.2
20260903230032 79 61 0.0 2.0 0.00 0.66 0.12 81 1011.1
20260903224536 79 61 0.0 2.0 0.00 0.66 0.12 80 1010.9
20260903223031 80 61 0.0 1.0 0.00 0.66 0.12 79 1010.8
20260903221544 81 61 0.0 2.0 0.00 0.66 0.12 76 1010.7
20260903220030 81 61 1.0 2.0 0.00 0.66 0.12 74 1010.4
20260903214527 82 61 1.0 2.0 0.00 0.66 0.12 74 1010.7
20260903213028 82 61 0.0 3.0 0.00 0.66 0.12 72 1010.7
20260903211526 82 49 0.0 2.0 0.00 0.66 0.12 70 1010.7
20260903210025 83 234 1.0 3.0 0.00 0.66 0.12 68 1010.7
20260903204527 83 10 0.0 4.0 0.00 0.66 0.12 70 1011.0
20260903203033 83 317 2.0 6.0 0.00 0.66 0.12 67 1011.0
20260903201521 82 186 2.0 5.0 0.00 0.66 0.12 71 1011.3
20260903200035 83 351 1.0 9.0 0.00 0.66 0.12 67 1011.4
20260903194534 84 241 1.0 5.0 0.00 0.66 0.12 69 1011.2
20260903193026 84 228 1.0 4.0 0.00 0.66 0.12 68 1011.2
20260903191515 83 65 1.0 3.0 0.00 0.66 0.12 70 1011.6
20260903190114 81 11 1.0 6.0 0.00 0.66 0.12 72 1011.7
20260903184511 81 59 0.0 4.0 0.00 0.66 0.12 72 1012.0
20260903183010 81 29 1.0 3.0 0.00 0.66 0.12 71 1012.0
20260903181508 81 301 1.0 3.0 0.00 0.66 0.12 72 1012.1
20260903180013 81 302 0.0 3.0 0.00 0.66 0.12 73 1012.2
20260903174506 81 302 0.0 5.0 0.00 0.66 0.12 72 1012.3
20260903173005 81 312 0.0 2.0 0.00 0.66 0.12 71 1012.4
20260903171504 81 18 1.0 5.0 0.00 0.66 0.12 72 1012.4
20260903170100 80 28 1.0 3.0 0.00 0.66 0.12 73 1012.5
20260903164603 78 28 0.0 2.0 0.00 0.66 0.12 78 1012.7
20260903163055 78 29 0.0 4.0 0.00 0.66 0.12 78 1012.9
20260903161553 77 24 0.0 3.0 0.00 0.66 0.12 79 1013.0
20260903160054 77 235 0.0 4.0 0.00 0.66 0.12 79 1013.1
20260903154549 77 217 0.0 11.0 0.00 0.70 0.12 82 1013.3
20260903153048 75 66 0.0 3.0 0.00 0.70 0.12 87 1013.4
20260903151540 74 221 0.0 4.0 0.00 0.70 0.12 92 1013.5
20260903150038 72 220 0.0 2.0 0.00 0.70 0.12 94 1013.3
20260903144536 70 220 1.0 3.0 0.00 0.96 0.12 94 1013.4
20260903143034 70 220 1.0 2.0 0.00 0.96 0.12 94 1013.5
20260903141531 69 220 0.0 2.0 0.00 0.96 0.12 94 1013.6
20260903140031 69 220 1.0 3.0 0.00 0.96 0.12 94 1013.5
20260903134530 69 220 1.0 5.0 0.00 0.96 0.12 94 1013.5
20260903133030 70 198 0.0 4.0 0.00 0.96 0.12 95 1013.4
20260903131530 70 158 0.0 2.0 0.00 0.96 0.12 95 1013.2
20260903130030 69 158 0.0 2.0 0.00 0.96 0.12 95 1013.4
20260903124525 69 158 1.0 3.0 0.00 0.96 0.12 95 1013.5
20260903123022 68 158 0.0 2.0 0.00 0.96 0.12 95 1013.6
20260903121524 67 158 0.0 2.0 0.00 0.96 0.12 95 1013.4
20260903120021 67 158 0.0 1.0 0.00 0.96 0.12 95 1013.2
20260903114520 65 158 0.0 2.0 0.00 0.96 0.12 95 1013.1
20260903113027 65 158 0.0 1.0 0.00 0.96 0.12 94 1013.3